ATLAS 5 CENTAUR DEB, 44040

Orbit data source: Space-Track

ATLAS 5 CENTAUR DEB, 44040 is space debris in HEO originally from a launch on Wed, 17 Sep 2014 UTC launched from the Air Force Eastern Test Range (AFETR). Debris objects in space refer to the collection of defunct objects orbiting the Earth. Examples of debris include non-operational satellites, rocket bodies, and fragments generated from explosions, collisions, or faulty payload assembly.

Loading next visibility...
Identifier
44040, 2014-055CA
Orbit
HEO
Country
Flag of USUS
Related business
Flag of USUnited Launch Alliance/Lockheed Martin (US)
Manufacturer
Unknown
Mission
Spacecraft
Bus & Motor
Unknown
Mass
Unknown
Launch date (UTC)
2014-09-17 (12 years ago)
Launch vehicle
Unknown
Launch site
Air Force Eastern Test Range (AFETR)
Object type
Payload
Rocket body
Debris
Shape & HBR
Unknown shape, 1.1 m
Radar Cross Section
Medium (>0.1 m² and <1 m²)

Expand to show TLE details & history
Last TLE update: 1 week ago

TLE from 1 week ago
0 ATLAS 5 CENTAUR DEB
1 44040U 14055CA  26255.80610986 -.00000107  00000-0  00000-0 0  9994
2 44040  20.4792 126.9913 4738040 196.3446 140.6693  1.88072519 53501
Epoch: 2026-09-12T19:20Z
TLE epoch observation values (Epoch: 2026-09-12T19:20:47.891Z)
Latitude
0.00001°
Longitude
-154.95823°
Altitude
33,045.833 km
Speed
2.417 km/s
True Right ascension
08h 28m 12s
True Declination
0° 00' 00"
Sunlit
Object was in daylight at epoch
Visualization orbit readout
Latitude
Unknown
Longitude
Unknown
Altitude
Unknown
Speed
Unknown
Apparent Right ascension
Unknown
Apparent Declination
Unknown
Sunlit
N/A
Visualization observer readout
Local Sidereal Time
11:57:29
Azimuth
Unknown
Elevation
Unknown
Doppler factor
Unknown
Orbital elements
Apogee altitude
34,484.027 km
Perigee altitude
8,210.986 km
Semi-major axis
27,725.643 km
Eccentricity
0.4738
Inclination
20.4792°
RAAN
126.9913°
Arg. of periapsis
196.3446°
True anomaly
163.67025°
Mean anomaly
140.6693°
Eccentric anomaly
152.99562°
Mean motion
0.47013 °/min
Orbital period
765.74 mins
BSTAR
0
Loading maneuver chart data...
Computing Atmospheric mass density...

Documentation

Showing up to 5 results
|